Make a donation for Blitzortung.org to continue this services free of charge.
Spenden Sie für Blitzortung.org!
Please note: Contributions to Blitzortung.org are not tax deductible.
Regions/Countries: current only
List of Stations for "-" sorted ascending by Country
(Country = Country in that the station is located (assigned by the user))
StationCityCommentCountryRegionsStatusLast signalTotalValidInvolvedUsedClosestFarthest
2414Peats RidgeTemporary Install - reliably h...Australia / New South WalesAfrica 1Running2022-11-27 08:443952028105000 km0 km
2414Peats RidgeTemporary Install - reliably h...Australia / New South WalesEurope 2Running2022-11-27 08:4439520281056215652 km15836 km
2414Peats RidgeTemporary Install - reliably h...Australia / New South WalesEurope 3Running2022-11-27 08:4439521281067215652 km15836 km
2428LismoreTestingAustralia / New South WalesOceania 1Offline2021-10-26 08:54000024000 km0 km
2428LismoreTestingAustralia / New South WalesAsia 1Offline2021-10-26 08:54000024000 km0 km
2435Hornsby, NSWSystem Blue; three-axis ferrit...Australia / New South WalesOceania 1Interference2022-11-27 08:36207011179191076133 km3645 km
2648MaroubraAustralia / New South WalesEurope 1Running2022-11-27 08:41148138386110 km8398 km
2648MaroubraAustralia / New South WalesOceania 1Running2022-11-27 08:4114813838680763614 km3177 km
2648MaroubraAustralia / New South WalesAfrica 1Running2022-11-27 08:44143898133220 km10147 km
2648MaroubraAustralia / New South WalesEurope 2Running2022-11-27 08:451433380861818780 km16604 km
2648MaroubraAustralia / New South WalesEurope 3Running2022-11-27 08:4514333808613115488 km17138 km
2892Sanctuary PointAustralia / New South WalesOceania 1Running2022-11-27 08:434937261653042075 km3766 km
2896Kembla GrangeAustralia / New South WalesOceania 1Running2022-11-27 08:4363295520796411 km2222 km
966Darwin - Alawa200mm ferrites to test, was 30...Australia / Northern TerritoryOceania 1Running2022-11-27 08:4274741152477163 km1057 km
2281Darwin - AnulaAustralia / Northern TerritoryOceania 1Running2022-10-30 00:00000024000 km0 km
886Moffat Beach, Sunshine CoastAustralia / QueenslandEurope 1Running2022-11-27 08:422231798000 km0 km
886Moffat Beach, Sunshine CoastAustralia / QueenslandOceania 1Running2022-11-27 08:43226180813496112 km3115 km
886Moffat Beach, Sunshine CoastAustralia / QueenslandAsia 1Running2022-11-27 08:442287811334541 km4788 km
886Moffat Beach, Sunshine CoastAustralia / QueenslandSouth America 1Running2022-11-27 08:442295817220 km11446 km
886Moffat Beach, Sunshine CoastAustralia / QueenslandAfrica 1Running2022-11-27 08:442309823220 km9685 km
886Moffat Beach, Sunshine CoastAustralia / QueenslandJapan 1Running2022-11-27 08:442332836444737 km5127 km
886Moffat Beach, Sunshine CoastAustralia / QueenslandEurope 2Running2022-11-27 08:45235984310115556 km15805 km
886Moffat Beach, Sunshine CoastAustralia / QueenslandEurope 3Running2022-11-27 08:45235984311115556 km15805 km
1263Dutton Park, Brisbane300mm loops (x 44 turns)Australia / QueenslandOceania 1Running2022-11-27 08:431711122625818497 km3122 km
1363Brisbane Nth 2System RED H Field only 2m loo...Australia / QueenslandOceania 1Interference2022-11-27 04:54282111230 km5000 km
1399Brisbane Nth 1System RED H Field only 2m loo...Australia / QueenslandOceania 1Running2022-11-27 08:431128250462694 km1823 km
1527CranbrookAustralia / QueenslandOceania 1Running2022-11-27 08:431487613134800230182 km2427 km
1593CabooltureHome sweet homeAustralia / QueenslandOceania 1Running2022-10-30 00:00000024000 km0 km
1631CarinaCu pipe loop & Toroid CouplerAustralia / QueenslandOceania 1Running2022-11-27 08:4332893090109085690 km3260 km
1695BundabergSystem Blue. 38cm loopAustralia / QueenslandOceania 1Running2022-11-27 08:43995986254198329 km2808 km
2201Mt CottonVK4RDB Repeater SiteAustralia / QueenslandOceania 1Bad GPS2022-08-06 00:48000024000 km0 km
2332Chapel Hill,Using mag field only - 3 ortho...Australia / QueenslandEurope 1Running2022-11-27 08:4223921666000 km0 km
2332Chapel Hill,Using mag field only - 3 ortho...Australia / QueenslandOceania 1Running2022-11-27 08:4323191615429357105 km3277 km
2332Chapel Hill,Using mag field only - 3 ortho...Australia / QueenslandAsia 1Running2022-11-27 08:4422381554314560 km4892 km
2332Chapel Hill,Using mag field only - 3 ortho...Australia / QueenslandSouth America 1Running2022-11-27 08:4422381554110 km11791 km
2332Chapel Hill,Using mag field only - 3 ortho...Australia / QueenslandAfrica 1Running2022-11-27 08:4422401556210 km9629 km
2332Chapel Hill,Using mag field only - 3 ortho...Australia / QueenslandJapan 1Running2022-11-27 08:4422421557772928 km5195 km
2332Chapel Hill,Using mag field only - 3 ortho...Australia / QueenslandEurope 2Running2022-11-27 08:45218215059114888 km16244 km
2332Chapel Hill,Using mag field only - 3 ortho...Australia / QueenslandEurope 3Running2022-11-27 08:45218215059114888 km16244 km
2359Moorooka, BrisbaneSystem Blue, E and 3 orthogon...Australia / QueenslandOceania 1Offline2022-11-21 11:17000024000 km0 km
2359Moorooka, BrisbaneSystem Blue, E and 3 orthogon...Australia / QueenslandAsia 1Offline2022-11-21 11:17000024000 km0 km
2451Wavell HeightsAustralia / QueenslandOceania 1Running2022-11-27 08:42295815884316655 km1557 km
2451Wavell HeightsAustralia / QueenslandAsia 1Running2022-11-27 08:4329541585972749 km4943 km
2662Excelsior Park, Morayfield, Br...3x200mmx15mm Ferrite Rod + 150...Australia / QueenslandOceania 1Running2022-11-27 08:4333422847772489111 km3269 km
2662Excelsior Park, Morayfield, Br...3x200mmx15mm Ferrite Rod + 150...Australia / QueenslandAsia 1Running2022-11-27 08:4433292839994569 km4816 km
1015Lyrup, South Australia300mm ferrite Hfield/800mm Efi...Australia / South AustraliaOceania 1Interference2022-11-27 08:43886947530467680 km2489 km
1016Paringa, South Australia300mm ferrite Hfield/200mm Efi...Australia / South AustraliaOceania 1Running2022-11-27 08:4322362921201666 km2458 km
1248RidgehavenRed E200mm onlyAustralia / South AustraliaOceania 1Running2022-11-27 08:4322253186861275746818 km3447 km
1694Salisbury, South Australia3 x 200mm Ferrite + 300mm E. F...Australia / South AustraliaOceania 1Running2022-10-30 00:00000024000 km0 km
2105Port LincolnAustralia / South AustraliaEurope 1Running2022-11-27 07:391310000 km0 km
2105Port LincolnAustralia / South AustraliaOceania 1Running2022-11-27 07:391310947 km68 km
2105Port LincolnAustralia / South AustraliaSouth America 1Running2022-11-27 07:391310000 km0 km
2105Port LincolnAustralia / South AustraliaAfrica 1Running2022-11-27 07:391310000 km0 km
2105Port LincolnAustralia / South AustraliaEurope 2Running2022-11-27 07:391310000 km0 km
2105Port LincolnAustralia / South AustraliaEurope 3Running2022-11-27 07:391310000 km0 km
2175IronbankAustralia / South AustraliaOceania 1Running2022-10-30 00:00000024000 km0 km
2349Mil-LelTesting H FieldAustralia / South AustraliaOceania 1Running2022-11-27 08:431529014641412259746 km3535 km
2353WhyallaMostly relying on e field ante...Australia / South AustraliaEurope 1Running2022-11-27 08:4231172247220 km9042 km
2353WhyallaMostly relying on e field ante...Australia / South AustraliaOceania 1Running2022-11-27 08:4231172247221127 km1283 km
2353WhyallaMostly relying on e field ante...Australia / South AustraliaAsia 1Running2022-11-27 08:4231172247654941 km5181 km
2353WhyallaMostly relying on e field ante...Australia / South AustraliaSouth America 1Running2022-11-27 08:4231172247000 km0 km
2353WhyallaMostly relying on e field ante...Australia / South AustraliaAfrica 1Running2022-11-27 08:4231172247430 km9406 km
2353WhyallaMostly relying on e field ante...Australia / South AustraliaJapan 1Running2022-11-27 08:4231172247993521 km5865 km
2438Athelstone (IADELA729)2 x 200mm Ferrite, 200mm E-fie...Australia / South AustraliaOceania 1Running2022-11-27 08:43164101520715991052822 km3634 km
2667Para Hills WestBack To Testing StageAustralia / South AustraliaOceania 1Running2022-11-27 08:434620333037132908 km2015 km
2953StrathalbynSHR/Hallett/CFS SBYN-02Australia / South AustraliaOceania 1Running2022-11-27 08:391724214440382107849 km3644 km
2976AdelaideAustralia / South AustraliaOceania 1Running2022-11-27 08:42554847224878 km2267 km
972KingstonTrialing AntennasAustralia / TasmaniaOceania 1Running2022-11-27 08:435570444915331064134 km4581 km
1833KingstonLoops N-S and E-WAustralia / TasmaniaOceania 1Running2022-11-27 08:4330356254301146458181 km4574 km
1833KingstonLoops N-S and E-WAustralia / TasmaniaSouth America 1Running2022-11-27 08:443036525427000 km0 km
1833KingstonLoops N-S and E-WAustralia / TasmaniaAfrica 1Running2022-11-27 08:443042925472110 km9257 km
2048StowportBlue 19.4, 2x 200mm ferrite, 1...Australia / TasmaniaOceania 1Running2022-11-27 08:431146611335395208253 km3321 km
2050Sandy BayU of Tas Environmental Change ...Australia / TasmaniaOceania 1Bad GPS2022-03-14 02:36000024000 km0 km
2064OrfordAustralia / TasmaniaOceania 1Idle2022-10-30 00:00000024000 km0 km
2121CradocLoop AntennaAustralia / TasmaniaOceania 1Running2022-11-27 08:43485635071075616158 km4587 km
849Corryong, VicAustralia / VictoriaOceania 1Running2022-11-27 08:4326051397841714133 km3328 km
919AcheronOnlineAustralia / VictoriaOceania 1Running2022-11-27 08:43141001114713641255349 km3928 km
1323SilvanAntenna approx 4m above groundAustralia / VictoriaOceania 1Running2022-11-27 08:43170595041413 km733 km
1613PortarlingtonSystem blue. 100mm E-fieldAustralia / VictoriaOceania 1Idle2022-10-30 00:00000024000 km0 km
1679BallaratE-field built-in, and now grou...Australia / VictoriaOceania 1Running2022-11-27 07:434222754 km3077 km
1679BallaratE-field built-in, and now grou...Australia / VictoriaSouth America 1Running2022-11-27 07:4342000 km0 km
1679BallaratE-field built-in, and now grou...Australia / VictoriaAfrica 1Running2022-11-27 07:4342000 km0 km
1890StawellUnder test firmware 19.3Australia / VictoriaOceania 1Offline2022-11-06 12:58000024000 km0 km
2066MordiallocAustralia / VictoriaOceania 1Running2022-10-30 00:00000024000 km0 km
2081DromanaNew setup, indoors for testingAustralia / VictoriaOceania 1Running2022-10-30 00:00000024000 km0 km
2090EnsayAustralia / VictoriaOceania 1Running2022-11-27 08:437064153621210 km2850 km
2098Neerim EastAustralia / VictoriaOceania 1Running2022-11-27 08:329041152436 km1656 km
2118BlackburnSystem Blue 19.4 @ v8.4, H two...Australia / VictoriaOceania 1Offline2022-10-30 00:00000024000 km0 km
2120Keilor ParkSystem Blue. 2x 20cm ferrites....Australia / VictoriaOceania 1Running2022-11-27 08:438305767917121561439 km3961 km
2139Croydon SouthV9.4 Blue, clean site, quiet P...Australia / VictoriaEurope 1Running2022-11-27 08:4384827948000 km0 km
2139Croydon SouthV9.4 Blue, clean site, quiet P...Australia / VictoriaOceania 1Running2022-11-27 08:438509797317001607420 km3980 km
2139Croydon SouthV9.4 Blue, clean site, quiet P...Australia / VictoriaAfrica 1Running2022-11-27 08:4484797958330 km9538 km
2167HeathmontAustralia / VictoriaOceania 1Running2022-11-27 08:4341001562753483422 km3146 km
2167HeathmontAustralia / VictoriaSouth America 1Running2022-11-27 08:4441661569220 km11841 km
2167HeathmontAustralia / VictoriaAfrica 1Running2022-11-27 08:4442061571220 km9535 km
2391HeathcoteV9.2 Blue, Leon Mow Radio Obse...Australia / VictoriaOceania 1Running2022-11-27 08:4343378371571096605392 km3859 km
2979StawellAustralia / VictoriaOceania 1Running2022-11-27 08:434352408016261530555 km3861 km
844RockinghamRebirth (temporary)Australia / Western AustraliaOceania 1Running2022-11-27 08:4314143161541191110 km3131 km
973Willetton, PerthAustralia / Western AustraliaOceania 1Running2022-11-27 08:43221312035094111082 km3377 km
1515BaldivisAustralia / Western AustraliaOceania 1Running2022-11-27 08:43319124668536671108 km4762 km
Select your menu language
češtinadanskdeutschελληνικάenglishespañolsuomeksifrançaismagyaritaliano日本語latviskinederlandsenorskмакедонскиpolskiрусскийсрпскиsvenskatürkукраїнський
If your language is not supported and if you want to adapt the menu language, then write an email to info ☺ blitzortung.org.